Hurricane Symbol View the latest observations near Atlantic Potential Tropical Cyclone One.

Station PRDA2 - 9497645 - Prudhoe Bay, AK Image indicating link to RSS feed of recent meteorological observations for station PRDA2


Conditions at PRDA2 as of
(7:18 am AKDT)
1518 GMT on 06/18/2024:
     

Click on the graph icon in the table below to see a time series plot of the last five days of that observation.

5-day plot - Wind Direction Wind Direction (WDIR): E ( 80 deg true )
5-day plot - Wind Speed Wind Speed (WSPD): 12.0 kts
5-day plot - Wind Gust Wind Gust (GST): 15.9 kts
5-day plot - Atmospheric Pressure Atmospheric Pressure (PRES):29.93 in
5-day plot - Air Temperature Air Temperature (ATMP): 29.1 °F
5-day plot - Water Temperature Water Temperature (WTMP): 31.8 °F
5-day plot - Wind Chill Wind Chill (CHILL): 18.3 °F
5-day plot - Wind Speed at 10 Meters Wind Speed at 10 meters (WSPD10M): 11.7 kts
5-day plot - Wind Speed at 20 Meters Wind Speed at 20 meters (WSPD20M): 13.6 kts
5-day plot -  Wind Speed, Wind Gust and Atmospheric Pressure Combined plot of Wind Speed, Gust, and Air Pressure
NOS Water Level Observation Network Water Level
Previous observations
TIME
(AKDT)
5-day plot - Wind Direction
WDIR
 
5-day plot - Wind Speed
WSPD
kts
5-day plot - Wind Gust
GST
kts
5-day plot - Wave Height
WVHT
ft
5-day plot - Dominant Wave Period
DPD
sec
5-day plot - Average Wave Period
APD
sec
5-day plot - Mean Wave Direction
MWD
 
5-day plot - Atmospheric Pressure
PRES
in
5-day plot - Pressure Tendency
PTDY
in
5-day plot - Air Temperature
ATMP
°F
5-day plot - Water Temperature
WTMP
°F
5-day plot - Dew Point
DEWP
°F
5-day plot - Salinity
SAL
psu
5-day plot - Visibility
VIS
nmi
5-day plot - Tide (above MLLW)
TIDE
ft
2024-06-18 07:12 am E 12.0 15.9----29.93- 28.9 31.8----
2024-06-18 07:06 am E 12.0 15.9----29.93- 29.1 31.8----
2024-06-18 07:00 am E 13.0 15.9----29.92-0.01 28.9 31.8----
2024-06-18 06:54 am E 12.0 15.9----29.92- 28.9 31.8----
2024-06-18 06:48 am E 12.0 15.9----29.93- 28.9 31.8----
2024-06-18 06:42 am E 14.0 15.9----29.93- 28.6 31.8----
2024-06-18 06:36 am E 12.0 15.9----29.93- 28.8 31.8----
2024-06-18 06:30 am E 12.0 15.9----29.94- 28.8 31.8----
2024-06-18 06:24 am E 12.0 15.0----29.94- 28.6 31.8----
2024-06-18 06:18 am E 12.0 14.0----29.94- 28.8 31.8----
2024-06-18 06:12 amESE 11.1 13.0----29.94- 28.9 31.8----
2024-06-18 06:06 am E 12.0 14.0----29.94- 28.4 31.8----
2024-06-18 06:00 am E 12.0 14.0----29.93+0.00 28.2 31.8----
2024-06-18 05:54 am E 11.1 14.0----29.93- 28.6 31.8----
2024-06-18 05:48 am E 11.1 14.0----29.93- 28.2 31.8----
2024-06-18 05:42 am E 11.1 14.0----29.93- 28.4 31.8----
2024-06-18 05:36 am E 11.1 14.0----29.93- 28.2 31.8----
2024-06-18 05:30 am E 12.0 14.0----29.93- 28.2 31.8----
2024-06-18 05:24 am E 11.1 15.0----29.93- 28.2 31.8----
2024-06-18 05:18 am E 11.1 13.0------ 28.2-----
2024-06-18 05:12 am E 9.9 12.0----29.93- 28.6 31.8----
2024-06-18 05:06 am E 9.9 13.0----29.94- 28.6 31.8----
2024-06-18 05:00 am E 11.1 13.0----29.94-0.01 28.2 31.8----
2024-06-18 04:54 am E 12.0 15.0----29.94- 28.2 31.8----
2024-06-18 04:48 am E 13.0 15.9----29.93- 28.4 31.8----
2024-06-18 04:42 am E 13.0 15.0----29.94- 28.0 31.8----
2024-06-18 04:36 am E 13.0 17.1----29.93- 28.2 31.8----
2024-06-18 04:30 am E 12.0 17.1----29.93- 28.4 31.8----
2024-06-18 04:24 am E 13.0 17.1----29.93- 28.2 31.8----
2024-06-18 04:18 am E 14.0 17.1----29.93- 28.0 31.8----
2024-06-18 04:12 am E 14.0 17.1----29.94- 28.0 31.8----
2024-06-18 04:06 am E 14.0 15.9----29.94- 28.0 31.8----
2024-06-18 04:00 am E 14.0 17.1----29.94-0.01 28.2 31.8----
2024-06-18 03:54 am E 13.0 15.0----29.93- 28.2 31.8----
2024-06-18 03:48 amESE 11.1 14.0----29.94- 28.4 31.8----
2024-06-18 03:42 am E 14.0 15.0----29.94- 28.2 31.8----
2024-06-18 03:36 am E 13.0 15.0----29.93- 28.4 31.8----
2024-06-18 03:30 am E 12.0 15.0----29.94- 28.4 31.8----
2024-06-18 03:24 am E 14.0 15.9----29.94- 28.2 31.8----
2024-06-18 03:18 am E 12.0 15.0----29.94- 28.6 31.8----
2024-06-18 03:12 am E 13.0 15.9----29.93- 28.6 31.8----
2024-06-18 03:06 am E 14.0 15.9----29.93- 28.4 31.8----
2024-06-18 03:00 am E 13.0 15.0----29.94-0.01 28.6 31.8----
2024-06-18 02:54 am E 13.0 15.0----29.94- 28.6 31.8----
2024-06-18 02:48 am E 12.0 15.0----29.94- 28.8 31.8----
2024-06-18 02:42 am E 14.0 15.9----29.94- 28.6 31.8----
2024-06-18 02:36 am E 12.0 15.9----29.94- 28.8 31.8----
2024-06-18 02:30 am E 14.0 15.9----29.94- 28.6 31.8----
2024-06-18 02:24 am E 13.0 15.9----29.94- 28.8 31.8----
2024-06-18 02:18 am E 12.0 14.0----29.94- 28.9 31.8----
2024-06-18 02:12 am E 12.0 14.0----29.95- 28.9 31.8----
2024-06-18 02:06 am E 14.0 15.9----29.95- 28.6 31.8----
2024-06-18 02:00 am E 13.0 15.9----29.95+0.00 28.6 31.8----
2024-06-18 01:54 am E 13.0 15.9----29.95- 28.6 32.0----
2024-06-18 01:48 am E 13.0 15.9----29.95- 28.8 32.0----
2024-06-18 01:42 am E 14.0 15.9----29.95- 28.8 32.0----
2024-06-18 01:36 am E 13.0 17.1----29.95- 28.9 32.0----
2024-06-18 01:30 am E 12.0 17.1------ 28.9-----
2024-06-18 01:24 am E 13.0 15.9----29.95- 28.9 32.0----
2024-06-18 01:18 am E 14.0 17.1----29.95- 28.8 32.0----
2024-06-18 01:12 am E 14.0 15.9----29.95- 28.9 32.0----
2024-06-18 01:06 am E 14.0 17.1----29.95- 29.3 32.0----
2024-06-18 01:00 am E 15.0 17.1----29.95+0.00 29.1 32.0----
2024-06-18 12:54 am E 15.9 17.1----29.95- 29.1 32.0----
2024-06-18 12:48 amENE 15.9 17.1----29.95- 28.8-----
2024-06-18 12:42 am E 15.0 17.1----29.95- 28.9 32.0----
2024-06-18 12:36 am E 15.0 18.1----29.95- 29.3 32.0----
2024-06-18 12:30 am E 15.9 17.1----29.95- 28.9 32.0----
2024-06-18 12:24 amENE 15.0 15.9----29.96- 29.3 32.0----
2024-06-18 12:18 am E 15.0 17.1----29.95- 29.5-----
2024-06-18 12:12 am E 14.0 18.1----29.96- 29.7 32.0----
2024-06-18 12:06 am E 15.0 17.1----29.95- 29.5 32.0----
2024-06-18 12:00 am E 15.0 17.1----29.95+0.00 29.5 32.0----
2024-06-17 11:54 pm E 13.0 17.1----29.96- 29.7 32.0----
2024-06-17 11:48 pm E 14.0 15.9----29.96- 29.7 32.0----
2024-06-17 11:42 pm E 14.0 17.1----29.96- 29.7 32.0----
2024-06-17 11:36 pm E 14.0 19.0----29.96- 29.8 32.0----
2024-06-17 11:30 pm E 15.9 18.1----29.96- 29.7 32.0----
2024-06-17 11:24 pm E 14.0 15.9----29.96- 29.8 32.0----
2024-06-17 11:18 pm E 15.9 19.0----29.96- 29.7 32.0----
2024-06-17 11:12 pm E 14.0 15.9----29.95- 29.8 32.0----
2024-06-17 11:06 pm E 12.0 17.1----29.96- 30.2 32.0----
2024-06-17 11:00 pm E 15.0 17.1----29.95+0.00 29.8 32.0----
2024-06-17 10:54 pm E 15.0 18.1----29.96- 29.8 32.0----
2024-06-17 10:48 pm E 15.0 17.1----29.96- 29.8 32.0----
2024-06-17 10:42 pm E 15.0 18.1----29.95- 29.8 32.2----
2024-06-17 10:36 pm E 15.9 19.0----29.95- 30.0 32.2----
2024-06-17 10:30 pm E 14.0 19.0----29.95- 30.0 32.2----
2024-06-17 10:24 pm E 15.0 19.0----29.95- 30.0 32.2----
2024-06-17 10:18 pm E 14.0 19.0----29.95- 30.2 32.2----
2024-06-17 10:12 pm E 17.1 19.0----29.95- 30.2 32.2----
2024-06-17 10:06 pm E 14.0 17.1----29.95- 30.4 32.2----
2024-06-17 10:00 pm E 14.0 18.1----29.95+0.00 30.4 32.2----
2024-06-17 09:54 pm E 15.0 18.1----29.95- 30.4 32.2----
2024-06-17 09:48 pm E 14.0 17.1----29.96- 30.4 32.2----
2024-06-17 09:42 pm E 15.9 18.1----29.96- 30.6 32.2----
2024-06-17 09:36 pm E 15.0 17.1----29.96- 30.7 32.2----
2024-06-17 09:30 pm E 14.0 17.1----29.96- 30.7 32.2----
2024-06-17 09:24 pm E 14.0 17.1----29.96- 30.9 32.2----
2024-06-17 09:18 pm E 13.0 15.9----29.96- 30.9 32.2----
2024-06-17 09:12 pm E 15.0 19.0----29.96- 30.9 32.2----
2024-06-17 09:06 pm E 15.0 17.1----29.96- 31.1 32.2----
2024-06-17 09:00 pm E 15.9 18.1----29.96+0.00 31.5 32.2----
2024-06-17 08:54 pm E 15.0 15.9----29.96- 31.8 32.2----
2024-06-17 08:48 pm E 14.0 15.9----29.96- 31.8 32.0----
2024-06-17 08:42 pm E 14.0 15.9----29.96- 32.0 32.2----
2024-06-17 08:36 pm E 15.0 18.1----29.96- 32.0 32.2----
2024-06-17 08:30 pm E 15.0 18.1----29.95- 32.2 32.2----
2024-06-17 08:24 pm E 15.9 17.1----29.95- 32.4 32.2----
2024-06-17 08:18 pm E 15.0 17.1----29.96- 32.5 32.2----
2024-06-17 08:12 pm E 14.0 15.9----29.96- 32.5 32.2----
2024-06-17 08:06 pm E 13.0 15.0----29.96- 32.7 32.2----
2024-06-17 08:00 pm E 14.0 15.9----29.96-0.01 32.7 32.2----
2024-06-17 07:54 pm E 13.0 15.0----29.96- 32.9 32.2----
2024-06-17 07:48 pm E 13.0 15.9----29.96- 32.7 32.2----
2024-06-17 07:42 pm E 14.0 17.1----29.96- 32.9 32.2----
2024-06-17 07:36 pm E 14.0 17.1----29.96- 33.1 32.2----
2024-06-17 07:30 pm E 14.0 15.9----29.96- 32.9 32.2----
2024-06-17 07:24 pm E 14.0 17.1----29.96- 32.9 32.2----
2024-06-17 07:18 pm E 15.9 18.1----29.95- 32.9 32.2----
2024-06-17 07:12 pm E 15.9 18.1----29.95- 32.9 32.2----
2024-06-17 07:06 pm E 15.9 17.1----29.95- 32.9 32.4----
2024-06-17 07:00 pm E 15.9 19.0----29.95-0.02 32.9 32.4----
2024-06-17 06:54 pm E 15.9 19.0----29.95- 33.1 32.4----
2024-06-17 06:48 pm E 15.9 18.1----29.95- 32.9 32.4----
2024-06-17 06:42 pm E 15.0 17.1----29.96- 32.7 32.4----
2024-06-17 06:36 pm E 15.0 17.1----29.96- 32.7 32.4----
2024-06-17 06:30 pm E 15.9 18.1----29.96- 32.7 32.5----
2024-06-17 06:24 pm E 15.0 17.1----29.96- 32.7 32.5----
2024-06-17 06:18 pm E 15.9 19.0----29.96- 33.1 32.5----
2024-06-17 06:12 pm E 17.1 19.0----29.95- 33.1 32.5----
2024-06-17 06:06 pm E 15.9 18.1----29.96- 32.9 32.5----
2024-06-17 06:00 pm E 14.0 15.0----29.96+0.00 32.9 32.5----
2024-06-17 05:54 pm E 14.0 15.9----29.96- 32.7 32.5----
2024-06-17 05:48 pm E 15.0 17.1----29.96- 32.7 32.5----
2024-06-17 05:42 pmENE 15.0 15.9----29.96- 32.7 32.5----
2024-06-17 05:36 pmENE 15.0 15.9----29.97- 32.7 32.5----
2024-06-17 05:30 pmENE 14.0 15.0------ 32.7 32.5----
2024-06-17 05:24 pmENE 12.0 14.0------ 32.7 32.5----
2024-06-17 05:18 pmENE 13.0 14.0----29.97- 32.7 32.5----
2024-06-17 05:12 pmENE 14.0 15.9----29.97- 32.5 32.5----
2024-06-17 05:06 pmENE 15.0 15.9----29.97- 32.7 32.5----
2024-06-17 05:00 pmENE 13.0 14.0----29.97-0.01 32.5 32.7----
2024-06-17 04:54 pmENE 12.0 13.0----29.97- 32.7 32.7----
2024-06-17 04:48 pmENE 12.0 13.0----29.97- 32.5 32.7----
2024-06-17 04:42 pmENE 12.0 13.0----29.97- 32.5 32.7----
2024-06-17 04:36 pmENE 12.0 13.0----29.97- 32.4 32.7----
2024-06-17 04:30 pmENE 13.0 14.0----29.97- 32.4 32.7----
2024-06-17 04:24 pmENE 12.0 14.0----29.97- 32.4 32.7----
2024-06-17 04:18 pmENE 12.0 13.0----29.97- 32.4 32.7----
2024-06-17 04:12 pmENE 12.0 14.0----29.97- 32.4 32.7----
2024-06-17 04:06 pmENE 13.0 15.0----29.97- 32.4 32.7----
2024-06-17 04:00 pmENE 13.0 15.0----29.97-0.01 32.4 32.7----
2024-06-17 03:54 pmENE 14.0 15.0----29.97- 32.0 32.7----
2024-06-17 03:48 pmENE 12.0 14.0----29.97- 32.0 32.7----
2024-06-17 03:42 pmENE 12.0 14.0----29.97- 32.0 32.7----
2024-06-17 03:36 pmENE 12.0 14.0----29.97- 32.2 32.7----
2024-06-17 03:30 pmENE 11.1 12.0----29.97- 32.2 32.7----
2024-06-17 03:24 pmENE 11.1 15.0----29.97- 32.0 32.7----
2024-06-17 03:18 pmENE 14.0 15.9----29.97- 32.0 32.7----
2024-06-17 03:12 pmENE 14.0 15.0----29.97- 32.0 32.7----
2024-06-17 03:06 pmENE 14.0 15.0----29.97- 32.0 32.7----
2024-06-17 03:00 pmENE 14.0 15.9----29.97+0.00 32.0 32.7----
2024-06-17 02:54 pmENE 15.0 17.1----29.97- 32.0 32.5----
2024-06-17 02:48 pmENE 13.0 15.0----29.97- 31.8 32.5----
2024-06-17 02:42 pmENE 12.0 14.0----29.98- 32.0 32.5----
2024-06-17 02:36 pmENE 13.0 15.9----29.98- 32.0 32.5----
2024-06-17 02:30 pmENE 14.0 15.0----29.97- 31.8 32.5----
2024-06-17 02:24 pmENE 15.0 15.9----29.97- 31.8 32.5----
2024-06-17 02:18 pmENE 13.0 15.9----29.97- 32.0 32.5----
2024-06-17 02:12 pm E 13.0 15.0----29.97- 32.0 32.5----
2024-06-17 02:06 pm E 13.0 15.0----29.97- 31.8 32.5----
2024-06-17 02:00 pm-------29.98+0.00- 32.5----
2024-06-17 01:54 pm-------29.98-- 32.5----
2024-06-17 01:48 pm E 11.1 13.0----29.98-------
2024-06-17 01:42 pm E 11.1 14.0----29.98-- 32.5----
2024-06-17 01:36 pm E 12.0 15.0----29.98-- 32.7----
2024-06-17 01:30 pm E 12.0 13.0----29.98- 31.8 32.5----
2024-06-17 01:24 pm E 8.0 11.1----29.98- 32.7 32.5----
2024-06-17 01:18 pm E 8.9 13.0------ 33.6 32.5----
2024-06-17 01:12 pm E 11.1 13.0------ 32.0 32.5----
2024-06-17 01:06 pm E 11.1 13.0------ 31.8 32.5----
2024-06-17 01:00 pm E 12.0 14.0----29.98+0.00 32.0 32.5----
2024-06-17 12:54 pm E 11.1 14.0----29.98- 32.5 32.5----
2024-06-17 12:48 pm E 8.9 12.0----29.98- 33.3 32.5----
2024-06-17 12:42 pm E 8.9 12.0----29.98- 32.4 32.5----
2024-06-17 12:36 pm E 9.9 13.0----29.98- 32.5 32.5----
2024-06-17 12:30 pm E 8.0 14.0----29.98- 33.1 32.5----
2024-06-17 12:24 pm E 11.1 15.0----29.98- 32.5 32.5----
2024-06-17 12:18 pm E 12.0 15.9----29.98- 32.7 32.5----
2024-06-17 12:12 pm E 13.0 17.1----29.97- 31.8 32.5----
2024-06-17 12:06 pm E 15.0 17.1----29.97- 31.6 32.5----
2024-06-17 12:00 pm E 13.0 14.0----29.97+0.02 31.6 32.5----
2024-06-17 11:54 am E 13.0 15.0----29.97- 31.6 32.4----
2024-06-17 11:48 am E 13.0 15.0----29.97- 31.8 32.4----
2024-06-17 11:42 am E 13.0 15.0----29.97- 32.2 32.4----
2024-06-17 11:36 am E 12.0 14.0----29.98- 31.8 32.4----
2024-06-17 11:30 amESE 11.1 13.0----29.98- 32.4 32.4----
2024-06-17 11:24 amESE 9.9 13.0----29.98- 32.2 32.4----
2024-06-17 11:18 am E 7.0 14.0----29.98- 32.9 32.4----
2024-06-17 11:12 amESE 12.0 15.0----29.98- 32.0 32.4----
2024-06-17 11:06 am E 12.0 15.0----29.97- 32.0 32.4----
2024-06-17 11:00 amESE 12.0 15.0----29.97+0.01 32.2 32.4----
2024-06-17 10:54 amESE 9.9 15.0----29.97- 32.7 32.4----
2024-06-17 10:48 amESE 12.0 15.0----29.97- 32.5 32.2----
2024-06-17 10:42 amESE 12.0 14.0----29.98- 32.5 32.2----
2024-06-17 10:36 amESE 11.1 12.0----29.98- 32.7 32.2----
2024-06-17 10:30 amESE 8.9 12.0----29.98- 32.7 32.2----
2024-06-17 10:24 amESE 11.1 13.0----29.98- 32.4 32.2----
2024-06-17 10:18 amESE 8.0 9.9----29.98- 32.5 32.0----
2024-06-17 10:12 am E 8.0 11.1----29.98- 33.3 32.0----
2024-06-17 10:06 amESE 6.0 8.9----29.98- 33.4 32.0----
2024-06-17 10:00 amESE 7.0 8.9----29.98+0.01 32.7 32.0----
2024-06-17 09:54 amESE 6.0 11.1----29.98- 32.4 32.0----
2024-06-17 09:48 amESE 7.0 8.9----29.98- 33.1 32.0----
2024-06-17 09:42 am SE 6.0 8.9----29.98- 33.3 32.0----
2024-06-17 09:36 amESE 8.0 11.1----29.98- 32.2 32.0----
2024-06-17 09:30 amESE 8.0 12.0------ 33.1-----
2024-06-17 09:24 amESE 12.0 15.0----29.97- 31.6 32.0----
2024-06-17 09:18 amESE 12.0 17.1------ 31.6-----
2024-06-17 09:12 amESE 12.0 17.1----29.96- 31.5 32.0----
2024-06-17 09:06 amESE 15.0 20.0----29.96- 31.3 32.0----
2024-06-17 09:00 am E 15.9 22.0----29.96-0.02 31.3 32.0----
2024-06-17 08:54 am E 17.1 21.0----29.96- 31.1 32.0----
2024-06-17 08:48 am E 19.0 22.0----29.95- 30.9 32.0----
2024-06-17 08:42 am E 19.0 22.0----29.95- 31.1 32.0----
2024-06-17 08:36 am E 17.1 22.0----29.95- 31.1 32.0----
2024-06-17 08:30 am E 19.0 25.1----29.95- 31.1 32.0----
2024-06-17 08:24 am E 21.0 24.1----29.95- 30.9 32.0----
2024-06-17 08:18 am E 21.0 24.1----29.95- 31.1 32.0----
2024-06-17 08:12 am E 20.0 24.1----29.95- 31.1 32.0----
2024-06-17 08:06 am E 20.0 22.0----29.96- 31.3 32.0----
2024-06-17 08:00 am E 19.0 21.0----29.96-0.03 31.3 32.0----
2024-06-17 07:54 am E 17.1 19.0----29.96- 31.5 32.0----
2024-06-17 07:48 am E 15.0 17.1----29.97- 31.6 32.0----
2024-06-17 07:42 am E 15.9 17.1----29.97- 31.5 32.0----
2024-06-17 07:36 am E 13.0 17.1----29.97- 31.8 32.0----
2024-06-17 07:30 am E 15.0 17.1----29.97-- 31.8----
2024-06-17 07:24 am E 14.0 15.9----29.97-- 32.0----
2024-06-17 07:18 am E 14.0 15.9----29.97- 31.6 32.0----
2024-06-17 07:12 am E 15.0 15.9----29.97- 31.6 32.0----
2024-06-17 07:06 am E 12.0 15.0----29.98- 31.6 31.8----
2024-06-17 07:00 am E 12.0 14.0----29.97-0.04 31.6 32.0----
2024-06-17 06:54 amESE 12.0 14.0------ 31.8-----